CAPE
0 0 0 0 0 0 0 0 0 0 0 0 0 0 0 0 0 0 0 0 0 0 0 0 0 0 0 0 0 0 0 0 0 0 0 0 0 0 0 0 0 0 0 0 0 0 0
0 0 0 0 0 0 0 0 0 0 0 0 0 0 0 0 0 0 0 0 0 0 0 0 0 0 0 0 0 0 0 0 0 0 0 0 0 0 0 0 0 0 0 0 0 0 0
0 0 0 0 0 0 0 0 0 0 0 0 0 0 0 0 0 0 0 0 0 0 0 0 0 0 0 0 0 0 0 0 0 0 0 0 0 0 0 0 0 0 0 0 0 0 0
0 0 0 0 0 0 0 0 0 0 0 0 0 0 0 0 0 0 0 0 0 0 0 0 0 0 0 0 0 0 0 0 0 0 0 0 0 0 0 0 0 0 0 0 0 0 0
3 0 0 0 0 0 0 0 0 0 0 0 0 0 0 0 0 0 0 0 0 0 0 0 0 0 0 0 0 0 0 0 0 0 0 0 0 0 0 0 0 0 0 0 0 0 0
3 7 0 0 0 0 0 0 0 0 0 0 0 0 0 0 0 0 0 0 0 0 0 0 0 0 0 0 0 0 0 0 0 0 0 0 0 0 0 0 0 0 0 0 0 0 0
12 12 9 0 0 0 0 0 0 0 0 0 0 0 0 0 0 0 0 0 0 0 0 0 0 0 0 0 0 0 0 0 0 0 0 0 0 0 0 0 0 0 0 0 0 0 0
7 13 11 10 0 0 0 0 0 0 0 0 0 0 0 0 0 0 0 0 0 1 0 0 0 0 0 0 0 0 0 0 0 0 0 0 0 0 0 0 0 0 0 0 0 0 0
0 0 0 5 0 0 0 0 0 0 0 0 0 0 0 0 0 0 0 0 0 2 2 0 0 0 0 0 0 0 0 0 0 0 0 0 0 0 0 0 0 0 0 0 0 0 0
0 0 0 0 0 0 0 0 0 0 0 0 0 0 0 0 0 0 0 0 0 3 0 0 0 0 0 0 0 0 0 0 0 0 0 0 0 0 0 0 0 0 0 0 0 0 0
0 0 0 0 0 0 0 0 0 0 0 0 0 0 0 0 0 0 0 0 0 0 0 0 0 0 0 0 0 0 0 0 0 0 0 0 0 0 0 0 0 0 0 0 0 0 0
3 0 0 0 0 0 0 0 0 0 0 0 0 0 0 0 0 0 0 0 1 0 0 0 0 0 0 0 0 0 0 0 0 0 0 0 0 0 0 0 0 0 0 0 0 0 0
0 0 0 0 0 0 0 0 0 0 0 0 0 0 0 0 0 0 0 0 0 0 0 0 0 0 0 0 0 0 0 0 0 0 0 0 0 0 0 0 0 0 0 0 0 0 0
0 0 0 0 0 0 0 0 0 0 0 0 0 0 0 0 0 0 0 27 0 0 0 0 0 0 0 0 0 0 2 5 0 0 0 0 0 0 0 0 0 0 0 0 0 0 0
2 0 0 4 0 0 0 0 0 0 0 0 0 0 0 0 0 0 0 2 0 0 0 0 0 0 0 0 0 4 26 4 0 4 0 0 1 0 0 0 0 0 12 0 0 0 0
0 0 0 0 0 0 0 0 0 0 0 0 3 0 0 0 0 0 0 0 0 0 0 0 0 0 0 0 0 7 6 1 0 0 0 10 1 0 4 0 7 7 0 9 1 0 0
0 0 0 0 0 0 0 0 0 0 0 0 8 0 0 0 0 0 0 0 0 0 0 0 0 0 0 0 10 2 0 0 5 15 1 7 35 2 0 0 1 27 6 6 3 31 10
0 0 0 0 0 0 0 0 0 0 0 0 11 0 0 0 0 0 0 0 0 0 0 0 0 0 0 0 0 16 7 2 11 3 10 31 15 15 0 0 0 0 3 0 9 0 1
5 0 0 0 0 0 0 0 0 0 0 13 19 5 5 8 1 0 0 0 0 0 0 0 0 0 0 0 0 0 0 0 8 1 0 0 5 13 1 7 11 0 0 3 8 19 45
3 1 5 10 7 1 0 0 0 0 0 20 21 10 20 21 11 3 0 0 0 1 0 0 0 0 0 0 0 0 0 0 0 0 0 1 43 32 18 0 0 0 0 0 6 48 20
0 5 10 12 9 10 8 5 1 0 0 13 24 11 4 8 4 8 6 1 0 0 1 1 0 0 0 0 0 0 0 0 0 0 0 0 0 75 17 0 0 0 1 0 0 0 13
7 21 6 5 2 1 1 0 0 0 0 13 11 4 7 2 12 8 9 0 5 5 12 6 11 1 0 0 0 0 0 0 0 0 1 4 0 3 0 0 0 0 0 0 0 0 15
10 2 0 0 0 0 3 4 4 5 18 25 6 0 29 4 15 10 6 11 9 6 6 10 18 9 2 0 5 0 1 0 0 8 1 0 12 0 0 0 26 64 1 0 0 0 0
10 6 2 1 2 0 0 0 4 1 3 10 19 13 8 2 8 3 13 17 15 19 15 19 11 9 0 0 0 0 0 0 0 0 0 0 1 14 0 1 0 0 0 0 0 0 0
4 4 1 2 0 0 2 4 3 2 8 3 15 19 20 4 14 11 8 15 18 13 22 13 19 23 17 10 6 3 1 5 0 0 0 0 0 0 1 5 0 0 0 0 0 0 0
0 0 0 0 0 0 0 0 2 2 1 7 14 7 25 18 7 9 8 6 1 5 10 15 18 23 18 16 14 9 6 0 0 0 0 0 0 0 0 0 1 0 0 7 13 0 0
0 0 0 0 0 2 4 2 3 3 5 16 11 7 33 15 7 7 11 16 26 20 4 11 14 10 45 18 18 4 0 0 0 0 0 0 0 0 0 9 0 0 0 5 59 0 30
6 3 0 6 8 2 9 15 20 17 13 3 3 6 23 12 6 9 7 5 12 19 10 4 3 0 13 39 21 9 12 1 2 0 2 0 0 1 2 8 2 0 0 0 40 180 70
2 2 2 0 6 13 11 3 0 1 6 26 7 5 7 19 8 0 0 0 10 11 8 3 13 6 4 23 13 23 22 20 18 8 16 1 11 0 2 0 0 44 112 25 27 122 119
CIN
-0 -0 -0 -0 -0 -0 -0 -0 -0 -0 -0 -0 -0 -0 -0 -0 -0 -0 -0 -0 -0 -0 -0 -0 -0 -0 -0 -0 -0 -0 -0 -0 -0 -0 -0 -0 -0 -0 -0 -0 -0 -0 -0 -0 -0 -0 -0
-0 -0 -0 -0 -0 -0 -0 -0 -0 -0 -0 -0 -0 -0 -0 -0 -0 -0 -0 -0 -0 -0 -0 -0 -0 -0 -0 -0 -0 -0 -0 -0 -0 -0 -0 -0 -0 -0 -0 -0 -0 -0 -0 -0 -0 -0 -0
-0 -0 -0 -0 -0 -0 -0 -0 -0 -0 -0 -0 -0 -0 -0 -0 -0 -0 -0 -0 -0 -0 -0 -0 -0 -0 -0 -0 -0 -0 -0 -0 -0 -0 -0 -0 -0 -0 -0 -0 -0 -0 -0 -0 -0 -0 -0
-0 -0 -0 -0 -0 -0 -0 -0 -0 -0 -0 -0 -0 -0 -0 -0 -0 -0 -0 -0 -0 -0 -0 -0 -0 -0 -0 -0 -0 -0 -0 -0 -0 -0 -0 -0 -0 -0 -0 -0 -0 -0 -0 -0 -0 -0 -0
-2 -0 -0 -0 -0 -0 -0 -0 -0 -0 -0 -0 -0 -0 -0 -0 -0 -0 -0 -0 -0 -0 -0 -0 -0 -0 -0 -0 -0 -0 -0 -0 -0 -0 -0 -0 -0 -0 -0 -0 -0 -0 -0 -0 -0 -0 -0
-4 -4 -0 -0 -0 -0 -0 -0 -0 -0 -0 -0 -0 -0 -0 -0 -0 -0 -0 -0 -0 -0 -0 -0 -0 -0 -0 -0 -0 -0 -0 -0 -0 -0 -0 -0 -0 -0 -0 -0 -0 -0 -0 -0 -0 -0 -0
-4 -4 -3 -0 -0 -0 -0 -0 -0 -0 -0 -0 -0 -0 -0 -0 -0 -0 -0 -0 -0 -0 -0 -0 -0 -0 -0 -0 -0 -0 -0 -0 -0 -0 -0 -0 -0 -0 -0 -0 -0 -0 -0 -0 -0 -0 -0
-7 -3 -2 -1 -0 -0 -0 -0 -0 -0 -0 -0 -0 -0 -0 -0 -0 -0 -0 -0 -0 -0 -0 -0 -0 -0 -0 -0 -0 -0 -0 -0 -0 -0 -0 -0 -0 -0 -0 -0 -0 -0 -0 -0 -0 -0 -0
-0 -0 -0 -0 -0 -0 -0 -0 -0 -0 -0 -0 -0 -0 -0 -0 -0 -0 -0 -0 -0 -0 -0 -0 -0 -0 -0 -0 -0 -0 -0 -0 -0 -0 -0 -0 -0 -0 -0 -0 -0 -0 -0 -0 -0 -0 -0
-0 -0 -0 -0 -0 -0 -0 -0 -0 -0 -0 -0 -0 -0 -0 -0 -0 -0 -0 -0 -0 -0 -0 -0 -0 -0 -0 -0 -0 -0 -0 -0 -0 -0 -0 -0 -0 -0 -0 -0 -0 -0 -0 -0 -0 -0 -0
-0 -0 -0 -0 -0 -0 -0 -0 -0 -0 -0 -0 -0 -0 -0 -0 -0 -0 -0 -0 -0 -0 -0 -0 -0 -0 -0 -0 -0 -0 -0 -0 -0 -0 -0 -0 -0 -0 -0 -0 -0 -0 -0 -0 -0 -0 -0
-4 -0 -0 -0 -0 -0 -0 -0 -0 -0 -0 -0 -0 -0 -0 -0 -0 -0 -0 -0 -0 -0 -0 -0 -0 -0 -0 -0 -0 -0 -0 -0 -0 -0 -0 -0 -0 -0 -0 -0 -0 -0 -0 -0 -0 -0 -0
-0 -0 -0 -0 -0 -0 -0 -0 -0 -0 -0 -0 -0 -0 -0 -0 -0 -0 -0 -0 -0 -0 -0 -0 -0 -0 -0 -0 -0 -0 -0 -0 -0 -0 -0 -0 -0 -0 -0 -0 -0 -0 -0 -0 -0 -0 -0
-0 -0 -0 -0 -0 -0 -0 -0 -0 -0 -0 -0 -0 -0 -0 -0 -0 -0 -0 -0 -0 -0 -0 -0 -0 -0 -0 -0 -0 -0 -79 -32 -0 -0 -0 -0 -0 -0 -0 -0 -0 -0 -0 -0 -0 -0 -1
-4 -0 -0 -2 -0 -0 -0 -0 -0 -0 -0 -0 -0 -0 -0 -0 -0 -0 -0 -0 -0 -0 -0 -0 -0 -0 -0 -0 -0 -2 -3 -3 -0 -13 -0 -0 -15 -0 -0 -0 -0 -0 -2 -0 -2 -0 -0
-0 -0 -0 -0 -0 -0 -0 -0 -0 -0 -0 -0 -1 -0 -0 -0 -0 -0 -0 -0 -0 -0 -0 -0 -0 -0 -0 -0 -0 -2 -3 -3 -0 -0 -0 -5 -2 -0 -6 -0 -5 -2 -0 -5 -2 -0 -0
-0 -0 -0 -0 -0 -0 -0 -0 -0 -0 -0 -0 -1 -0 -0 -0 -0 -0 -0 -0 -0 -0 -0 -0 -0 -0 -0 -0 -4 -0 -0 -0 -5 -5 -6 -16 -3 -1 -0 -0 -4 -13 -3 -18 -16 -6 -6
-0 -0 -0 -0 -0 -0 -0 -0 -0 -0 -0 -0 -0 -0 -0 -0 -0 -0 -0 -0 -0 -0 -0 -0 -0 -0 -0 -0 -0 -2 -2 -2 -30 -72 -13 -24 -23 -14 -0 -0 -0 -1 -27 -0 -34 -2 -14
-3 -0 -0 -0 -0 -0 -0 -0 -0 -0 -0 -1 -0 -1 -3 -2 -0 -0 -0 -0 -0 -0 -0 -0 -0 -0 -0 -0 -0 -0 -1 -0 -17 -1 -0 -1 -38 -9 -5 -2 -11 -0 -0 -8 -3 -2 -1
-6 -9 -11 -6 -4 -3 -0 -0 -0 -0 -0 -0 -0 -0 -0 -0 -1 -1 -1 -2 -1 -1 -0 -0 -0 -0 -0 -0 -0 -0 -0 -0 -0 -0 -0 -0 -18 -15 -9 -0 -0 -0 -0 -0 -4 -0 -11
-2 -12 -11 -9 -7 -3 -3 -6 -6 -0 -0 -0 -0 -0 -2 -0 -0 -1 -1 -4 -0 -0 -4 -3 -0 -0 -0 -0 -0 -0 -0 -0 -0 -0 -0 -0 -0 -9 -56 -0 -0 -0 -11 -0 -0 -8 -14
-4 -2 -6 -6 -7 -9 -5 -0 -0 -0 -0 -0 -0 -3 -1 -3 -1 -3 -2 -0 -3 -5 -6 -5 -6 -3 -0 -0 -0 -0 -0 -0 -0 -0 -5 -10 -0 -0 -0 -0 -0 -8 -11 -0 -0 -0 -13
-2 -1 -0 -0 -0 -0 -2 -6 -12 -13 -4 -1 -0 -8 -0 -2 -1 -2 -5 -3 -4 -5 -3 -7 -8 -13 -17 -0 -15 -0 -17 -0 -5 -6 -2 -0 -0 -0 -0 -0 -15 -3 -23 -0 -0 -0 -0
-0 -0 -0 -1 -0 -0 -0 -0 -1 -1 -3 -2 -1 -1 -0 -0 -1 -4 -4 -5 -6 -4 -8 -6 -10 -6 -0 -0 -0 -0 -0 -0 -0 -0 -0 -0 -1 -0 -0 -0 -0 -0 -0 -0 -0 -0 -40
-1 -0 -0 -0 -0 -0 -1 -1 -1 -1 -0 -0 -3 -1 -0 -0 -2 -3 -5 -4 -5 -5 -3 -2 -5 -7 -12 -13 -7 -6 -1 -3 -0 -0 -0 -0 -0 -0 -0 -0 -0 -0 -0 -0 -0 -0 -0
-0 -0 -0 -0 -0 -0 -0 -0 -1 -2 -2 -2 -2 -1 -0 -0 -1 -2 -4 -5 -5 -5 -2 -3 -7 -2 -6 -4 -2 -1 -1 -0 -0 -0 -0 -0 -0 -0 -0 -0 -0 -0 -1 -6 -35 -0 -0
-0 -0 -0 -0 -1 -0 -0 -0 -4 -2 -2 -0 -0 -1 -0 -0 -1 -2 -1 -2 -3 -3 -3 -5 -5 -7 -5 -3 -1 -1 -2 -0 -0 -0 -0 -0 -0 -0 -0 -0 -0 -0 -0 -11 -35 -0 -58
-1 -0 -0 -1 -0 -0 -2 -1 -0 -0 -2 -0 -0 -0 -0 -0 -0 -0 -1 -3 -2 -1 -1 -1 -6 -0 -3 -1 -1 -0 -2 -2 -3 -0 -7 -3 -0 -1 -0 -0 -0 -0 -0 -0 -5 -30 -49
-3 -7 -2 -0 -14 -10 -9 -9 -2 -4 -6 -0 -0 -0 -0 -0 -0 -0 -0 -0 -3 -2 -2 -5 -1 -15 -32 -4 -3 -4 -1 -2 -3 -3 -7 -4 -1 -0 -6 -0 -0 -24 -26 -11 -19 -11 -45
Wind_Speed
19 18 18 19 19 19 20 20 21 21 22 22 23 24 25 26 27 29 30 31 31 31 31 31 32 32 27 22 22 17 14 10 7 14 15 13 14 15 14 17 17 9 11 9 21 16 14
15 17 17 18 18 19 20 20 21 23 23 23 24 25 26 27 27 29 30 31 32 32 32 32 31 32 26 27 20 19 17 11 14 14 17 19 16 19 19 17 15 22 21 24 9 8 13
12 14 16 17 18 18 21 22 22 23 24 25 25 26 27 28 29 30 31 32 33 33 33 32 31 29 29 29 22 21 18 18 17 19 21 20 23 17 17 17 17 20 24 26 12 9 13
14 14 13 13 15 18 20 21 23 24 24 25 26 27 28 29 31 32 33 34 34 34 34 32 31 29 32 29 26 26 25 24 22 21 22 22 20 24 24 23 20 19 20 21 14 14 14
13 13 13 14 15 14 15 18 21 23 24 26 27 28 29 31 33 34 36 36 37 35 33 32 29 27 34 22 26 26 25 27 24 22 22 22 21 22 22 21 23 16 18 15 20 15 19
12 11 12 13 14 15 15 17 18 20 23 24 26 29 31 32 34 36 38 38 35 34 30 28 30 31 30 30 23 24 24 25 26 24 25 23 23 24 22 21 22 21 18 19 20 17 15
11 11 11 12 13 15 16 17 18 20 21 21 23 27 30 32 34 36 35 32 32 31 30 34 26 30 26 25 27 23 21 23 24 27 27 24 26 26 23 26 27 31 31 30 30 26 29
12 11 11 12 13 15 15 17 18 19 20 22 24 26 28 31 32 29 28 30 28 30 41 36 37 41 39 34 34 30 23 26 24 31 28 32 33 30 33 32 33 30 32 32 33 28 27
12 12 13 13 14 15 16 17 18 19 20 22 24 26 28 30 25 22 22 24 27 29 40 45 42 43 39 35 43 40 31 30 33 32 33 36 36 31 36 36 32 33 33 35 35 35 31
13 13 13 14 14 15 16 16 18 20 20 22 24 26 27 26 21 21 21 25 23 23 39 43 39 40 38 38 48 39 38 36 38 39 37 40 38 38 34 36 31 36 32 35 35 33 32
14 14 14 14 14 15 16 17 18 19 21 22 23 25 25 23 21 21 24 25 19 18 46 32 35 24 30 33 38 34 33 36 44 42 36 44 39 38 40 37 31 37 36 34 32 35 34
13 13 14 15 14 15 16 17 18 19 21 22 23 24 24 21 19 20 22 18 15 28 44 32 28 31 34 34 42 40 31 33 36 43 46 49 44 38 38 39 36 38 34 32 35 36 39
15 14 14 15 15 15 16 17 17 18 20 21 22 23 23 22 21 22 21 16 25 37 26 32 34 32 35 35 35 38 36 36 40 41 47 48 49 41 36 39 34 33 30 36 37 36 41
14 15 15 15 15 15 16 16 16 17 19 20 21 22 20 20 20 21 18 21 34 28 31 28 31 32 37 34 38 35 37 41 38 43 44 45 53 45 41 39 39 33 34 37 42 41 40
14 14 14 14 14 15 15 15 16 16 18 19 20 19 19 17 18 18 20 29 31 29 29 33 34 39 42 39 39 41 35 39 42 38 48 50 53 42 40 39 36 44 40 38 44 48 48
15 15 14 14 14 14 14 14 14 15 16 16 19 21 19 15 16 17 24 32 31 29 31 33 36 34 41 37 38 39 39 37 38 44 47 47 56 51 47 37 39 42 41 42 40 47 51
16 15 14 14 14 14 14 13 14 14 14 15 19 22 16 14 15 19 30 31 33 33 32 32 37 41 42 41 38 40 40 42 38 36 37 44 51 51 49 50 40 35 43 46 43 39 45
16 15 14 14 13 13 12 14 15 15 13 13 18 23 16 11 20 24 31 30 29 38 32 35 37 42 46 44 45 43 43 40 35 35 36 38 40 49 52 47 48 43 43 42 48 49 45
16 14 14 14 13 14 15 14 13 13 9 13 21 22 17 14 29 31 31 34 35 39 39 38 42 39 39 45 49 45 46 45 40 35 30 34 36 45 53 50 47 50 46 50 44 46 49
17 15 14 14 15 15 14 13 13 13 13 16 21 27 22 21 27 35 38 40 41 33 36 40 47 46 48 48 43 50 50 46 40 44 40 38 40 41 50 53 48 48 51 49 47 47 47
17 16 16 17 17 16 15 14 13 13 12 14 21 26 24 29 30 32 34 38 39 40 36 35 41 42 47 52 50 52 51 48 45 41 37 32 42 46 50 54 53 53 53 50 55 51 48
16 17 19 19 18 18 17 15 14 13 11 17 24 25 25 31 31 30 30 36 39 40 38 40 42 41 43 45 44 51 49 50 50 43 41 32 44 45 52 56 51 54 50 54 55 54 59
17 19 20 21 20 18 17 15 14 13 12 19 21 24 26 27 28 31 31 31 31 29 31 35 40 45 46 42 42 41 44 45 45 45 43 44 39 39 49 47 54 57 57 57 49 49 53
23 24 24 22 20 18 17 18 17 16 16 18 18 18 24 31 29 29 29 32 30 28 30 25 22 32 36 37 42 45 47 49 51 53 48 49 47 42 50 46 54 47 41 45 47 52 61
26 26 24 22 21 19 17 16 16 17 18 21 20 22 26 30 28 29 30 31 31 30 29 29 25 25 35 35 41 43 48 52 54 53 51 47 48 47 49 50 50 57 44 41 41 50 41
31 28 22 19 18 16 16 17 17 17 18 20 22 21 25 31 28 27 29 27 27 30 30 27 29 30 27 26 35 45 49 49 48 44 40 45 48 50 51 49 42 46 34 33 25 45 30
33 27 21 17 16 17 17 17 18 18 19 19 23 20 24 31 27 23 25 25 24 32 33 31 31 29 28 28 35 43 50 48 57 59 56 52 50 50 57 52 51 52 43 29 28 31 29
35 22 16 15 15 14 14 16 17 18 20 22 22 19 20 27 27 20 22 25 23 26 26 25 30 30 29 28 29 33 39 46 53 57 56 57 53 48 55 55 62 48 46 42 31 22 24
36 27 18 14 10 11 13 14 14 15 19 21 25 21 21 24 23 18 24 21 19 30 32 35 28 28 20 21 25 31 36 39 42 55 48 61 55 58 44 39 43 48 45 39 36 34 22
Wind_Direction
274 278 280 284 283 288 287 291 294 296 298 299 299 299 300 299 298 296 295 294 295 297 299 300 301 301 305 297 300 320 326 327 334 311 309 323 321 324 331 332 330 345 341 331 228 212 212
285 282 286 282 286 288 287 289 291 294 295 298 299 299 298 298 299 298 296 294 293 294 296 298 299 298 296 288 306 310 308 311 304 305 304 300 310 309 313 324 328 318 321 315 228 209 212
295 291 290 286 286 289 287 287 290 294 294 296 297 298 298 297 297 297 296 295 293 292 294 295 297 298 289 282 299 300 301 295 294 294 296 298 288 305 319 321 320 322 318 313 328 345 344
282 289 296 303 298 293 291 288 288 292 293 294 295 297 296 296 295 294 293 292 290 291 292 294 295 293 284 287 289 287 285 285 288 288 291 296 295 291 293 301 311 314 318 326 352 337 344
281 287 292 296 300 311 309 301 296 296 299 294 296 295 297 297 295 293 291 289 287 287 289 291 293 290 285 294 285 285 283 278 284 282 287 291 292 290 294 298 304 305 307 314 321 330 325
283 288 294 298 302 303 307 309 314 310 300 302 300 297 297 296 295 294 291 287 286 288 286 287 284 285 280 277 288 288 287 280 276 281 278 279 284 282 284 287 289 301 304 305 312 322 325
286 291 295 301 305 307 307 309 310 310 311 317 314 307 301 299 296 295 295 290 285 282 274 272 281 276 283 285 285 283 286 282 275 271 270 271 272 269 278 282 287 290 294 294 297 305 305
293 298 301 302 307 308 311 312 313 313 313 311 309 310 311 298 297 300 295 287 286 287 279 276 274 272 272 281 278 274 282 277 271 265 268 269 264 273 277 281 285 284 289 290 294 300 304
290 293 297 301 305 308 312 313 315 315 315 315 313 311 309 306 306 311 302 299 299 292 277 275 271 270 269 272 269 268 269 272 270 270 267 266 271 274 277 276 279 280 284 287 290 293 297
290 295 298 304 308 310 313 315 316 318 318 317 316 315 314 309 309 311 309 310 308 303 279 277 269 274 266 265 268 268 266 266 267 268 269 269 273 271 275 277 275 278 284 284 286 289 294
286 292 297 302 306 309 311 313 315 318 318 318 317 317 316 320 311 308 307 309 307 309 274 285 270 282 273 258 272 270 265 259 261 264 268 267 268 269 271 271 275 278 285 284 285 286 290
288 296 299 301 305 309 311 313 314 316 317 318 317 316 315 313 316 314 314 314 307 283 274 284 281 279 275 267 266 274 271 260 265 264 264 266 268 267 270 272 270 277 281 282 282 283 281
287 295 300 302 306 309 310 312 314 317 318 317 315 315 314 312 306 314 311 303 288 273 293 284 281 281 276 273 272 268 265 263 256 262 262 263 263 265 271 272 272 271 269 276 278 273 278
286 294 300 305 307 309 312 313 312 313 316 316 314 311 313 309 313 313 305 287 277 287 282 289 293 289 280 277 273 273 268 264 262 262 267 263 262 258 260 260 265 265 262 266 272 278 281
289 298 307 309 310 312 313 313 313 314 315 316 315 314 309 312 311 310 291 276 282 286 292 289 290 283 278 278 275 272 271 269 266 263 264 267 267 266 259 259 259 263 261 265 274 275 278
290 296 303 308 313 315 314 313 313 315 316 317 314 310 303 314 312 302 284 279 282 287 289 290 283 287 281 284 280 273 271 274 273 269 271 270 270 269 269 266 256 257 264 266 265 269 271
289 296 302 306 309 309 311 312 312 313 313 313 311 306 315 311 309 290 279 283 286 284 286 288 284 280 280 282 282 278 277 276 276 281 279 273 270 265 268 263 268 256 259 261 266 267 268
289 296 301 306 307 307 306 307 305 306 312 312 309 301 319 316 291 289 283 288 292 285 287 284 285 281 278 279 277 276 274 274 290 298 283 281 277 266 261 261 263 273 266 257 259 261 266
287 295 300 302 300 297 298 301 305 306 298 312 302 301 313 302 291 286 288 289 289 285 283 285 280 282 282 277 274 274 273 275 282 288 295 299 276 271 264 260 260 260 267 268 261 264 263
286 291 294 294 292 292 295 297 298 301 300 300 304 301 300 293 290 291 290 286 284 288 289 285 281 281 279 276 277 275 273 276 279 279 290 291 275 269 267 263 264 262 258 265 265 261 264
287 288 288 288 288 289 290 291 292 296 296 296 297 296 300 299 291 290 288 290 289 287 286 284 284 282 276 274 274 273 274 276 276 281 286 282 277 273 271 268 265 263 263 264 261 265 263
290 287 286 287 288 289 289 287 286 286 288 284 296 295 301 295 293 292 291 288 287 288 286 284 280 281 278 276 274 274 275 273 272 277 280 281 269 285 270 267 267 265 262 259 259 262 265
288 286 286 288 290 290 288 284 281 273 265 287 294 301 298 298 294 290 288 291 292 294 290 288 286 282 278 279 281 285 281 279 275 274 274 275 273 277 273 278 275 261 256 256 261 261 261
282 283 287 291 291 289 286 282 276 264 256 272 290 294 294 289 288 288 292 291 288 289 291 291 291 287 286 287 286 281 278 275 272 269 270 268 267 271 271 282 268 266 265 263 264 259 252
282 286 291 293 293 290 286 278 271 266 259 264 272 277 290 290 290 290 288 287 292 289 284 286 286 289 293 290 281 279 275 274 270 269 266 263 264 265 265 267 276 267 270 270 258 261 262
281 288 294 294 291 286 280 275 269 259 255 260 265 266 277 284 280 292 292 290 285 287 287 281 286 285 291 290 283 274 272 274 270 272 270 263 259 257 258 260 271 271 282 277 261 261 260
283 294 296 291 284 281 275 266 263 256 251 249 274 245 268 276 281 287 288 286 284 284 284 288 285 281 280 279 279 277 275 275 270 267 265 264 265 251 252 255 259 259 272 273 252 267 279
286 301 294 289 288 274 270 270 264 256 242 233 260 241 256 276 270 269 271 268 281 285 288 290 289 279 279 276 278 282 283 278 275 269 265 259 257 258 253 251 253 256 264 262 267 276 291
287 303 305 302 288 287 289 285 272 250 234 232 265 241 241 267 295 278 246 251 254 276 279 280 280 283 299 285 280 288 286 286 280 269 269 256 254 252 258 256 256 261 270 269 267 272 290